Regional Weather Roundup
Issued by NWS

Home | Current Version | Previous Version | Text Only | Print | Product List | Glossary Off
Versions: 1 2 3 4 5 6 7 8 9 10 11 12 13 14 15 16 17 18 19 20 21 22 23 24 25 26 27 28 29 30 31 32 33 34 35 36 37 38 39 40 41 42 43 44 45 46 47 48 49 50

000
ASUS43 KMKX 180300
RWRWI

WISCONSIN REGIONAL WEATHER ROUNDUP
NATIONAL WEATHER SERVICE MILWAUKEE/SULLIVAN WI
900 PM CST WED DEC 17 2014

NOTE: "FAIR" INDICATES FEW OR NO CLOUDS BELOW 12,000 FEET WITH NO
SIGNIFICANT WEATHER AND/OR OBSTRUCTIONS TO VISIBILITY.

WIZ001-002-006>008-014>016-023>028-180400-
NORTHWEST WISCONSIN

CITY           SKY/WX    TMP DP  RH WIND       PRES   REMARKS
SUPERIOR ARPT  CLOUDY    19  16  88 SW3       30.32R
ASHLAND        CLOUDY    20  17  88 W5        30.30S WCI  13
HAYWARD        CLOUDY    18  13  80 CALM      30.27F
SIREN          MOCLDY    10   8  88 CALM      30.30S
CUMBERLAND     CLOUDY    16  10  79 N6        30.26F WCI   7
RICE LAKE      CLOUDY    18  12  78 N7        30.29F WCI   8
CHETEK         CLOUDY    18  12  79 NW5       30.28S WCI  11
LADYSMITH      CLOUDY    20  16  83 N7        30.27S WCI  11
EAU CLAIRE     NOT AVBL
MENOMONIE      CLOUDY    17  13  82 SW5       30.31R WCI  10
NEW RICHMOND   PTCLDY    12  10  94 CALM      30.31R
OSCEOLA        PTCLDY    11   9  91 CALM      30.34R
$$

WIZ003>005-009-010-017-018-180400-
NORTH CENTRAL WISCONSIN

CITY           SKY/WX    TMP DP  RH WIND       PRES   REMARKS
MANITOWISH WTR CLOUDY    20  18  90 N9        30.21S WCI  10
ARBOR VITAE    CLOUDY    22  19  88 N10       30.20S WCI  11
WOODRUFF       CLOUDY    22  19  88 N10       30.20S WCI  11
RHINELANDER    CLOUDY    20  17  88 N9        30.20R WCI   9
EAGLE RIVER    CLOUDY    21  19  94 N9        30.19F WCI  10
LAND O LAKES   CLOUDY    21  20  96 N8        30.21S WCI  12
PHILLIPS       CLOUDY    20  17  90 N3        30.22S
TOMAHAWK       CLOUDY    21  18  88 N6        30.22R WCI  14
MEDFORD        CLOUDY    19  15  85 N7        30.21S WCI  10
MERRILL        CLOUDY    22  19  89 N6        30.21F WCI  15
$$

WIZ029-030-035-036-043>047-180400-
CENTRAL WISCONSIN

CITY           SKY/WX    TMP DP  RH WIND       PRES   REMARKS
WAUSAU         CLOUDY    23  18  81 N8        30.20F WCI  14
MOSINEE        CLOUDY    21  19  93 N12       30.22S WCI   9
MARSHFIELD     CLOUDY    20  14  77 W6        30.23R WCI  12
STEVENS POINT  CLOUDY    19  13  76 CALM      30.23S
WAUPACA        CLOUDY    24  15  70 W5        30.23F WCI  18
WAUTOMA        NOT AVBL
WISC RAPIDS    CLOUDY    19  12  74 W6        30.26S WCI  11
CAMP DOUGLAS   NOT AVBL
$$

WIZ011>013-019>022-031-037>040-048>050-180400-
NORTHEAST WISCONSIN

CITY           SKY/WX    TMP DP  RH WIND       PRES   REMARKS
ANTIGO         CLOUDY    22  19  91 N14       30.18F WCI   9
SHAWANO        CLOUDY    27  20  75 NW6       30.23R WCI  21
OCONTO         CLOUDY    27  20  76 N6        30.21S WCI  20
STURGEON BAY   CLOUDY    27  19  74 NW15G21   30.20S WCI  15
GREEN BAY      CLOUDY    27  20  75 NW8       30.21S WCI  19
MANITOWOC      NOT AVBL
APPLETON       CLOUDY    21  16  79 W12       30.22S WCI   9
CLINTONVILLE   CLOUDY    27  19  74 N7        30.22S WCI  19
OSHKOSH        CLOUDY    21  14  74 W7        30.23S WCI  12
$$

WIZ032>034-041-042-053>061-180400-
SOUTHWEST WISCONSIN

CITY           SKY/WX    TMP DP  RH WIND       PRES   REMARKS
LA CROSSE      MOCLDY    19  12  74 NW5       30.32S WCI  12
SPARTA         CLOUDY    19  13  80 CALM      30.31S
VIROQUA        CLOUDY    18  14  85 N6        30.26S WCI   9
BOSCOBEL       CLOUDY    21  13  71 N3        30.32R
PRAIRIE DU CHI CLEAR     20  14  77 NW3       30.31S
PLATTEVILLE    CLEAR     18  15  87 CALM      30.27F
$$

WIZ056-057-062-063-064-067-068-180400-
SOUTH CENTRAL WISCONSIN

CITY           SKY/WX    TMP DP  RH WIND       PRES   REMARKS
REEDSBURG      CLEAR     17  12  80 W3        30.27S
BARABOO/DELLS  CLEAR     17  13  82 W3        30.27S
LONE ROCK      NOT AVBL
MINERAL POINT  PTCLDY    21  18  86 CALM      30.26S
MADISON        PTCLDY    19  13  77 NW5       30.27S WCI  12
MIDDLETON      PTCLDY    21  15  76 NW3       30.27S
WATERTOWN      CLEAR     19  15  82 W6        30.26S WCI  11
MONROE         CLOUDY    21  18  86 NW9       30.25F WCI  11
JANESVILLE     CLOUDY    25  16  68 NW7       30.27S WCI  17
$$

WIZ051-052-058>065-066-070>072-180400-
SOUTHEAST WISCONSIN

CITY           SKY/WX    TMP DP  RH WIND       PRES   REMARKS
MILWAUKEE      CLEAR     22  13  68 W9        30.25S WCI  12
WAUKESHA       CLEAR     18  14  86 W9        30.25S WCI   6
MILWAUKEE/TIMM CLEAR     19  14  79 W10       30.26R WCI   8
RACINE         PTCLDY    21  14  74 W7        30.27S WCI  12
BURLINGTON     MOCLDY    20  14  76 NW9       30.26S WCI  10
KENOSHA        PTCLDY    21  15  78 W8        30.26S WCI  11
FOND DU LAC    CLOUDY    21  13  71 W9        30.24R WCI  11
SHEBOYGAN      PTCLDY    21  14  74 W9        30.22R WCI  11
WEST BEND      CLEAR     21  14  73 W8        30.23S WCI  12
JUNEAU         CLEAR     18  14  84 W5        30.26S WCI  11
$$

LSZ147-162-180400-
LAKE SUPERIOR

STATION/POSITION TIME  TEMP    WIND        PRES    WAVE
                       AIR SEA DIR/SP/G            HT/PER
                 (UTC) (F)     (DEG/KT/KT) (MB)    (FT/S)
DEVILS ISLAND    0200   25      40/ 11/ 13 1027.7R
PORT WING        0200   20     170/  3/  6 1026.4
SAXON HARBOR     0200   27      10/  9/ 15 1026.1R
$$

LMZ867-665-643>646-180400-
LAKE MICHIGAN

STATION/POSITION TIME  TEMP    WIND        PRES    WAVE
                       AIR SEA DIR/SP/G            HT/PER
                 (UTC) (F)     (DEG/KT/KT) (MB)    (FT/S)
CHAMBERS ISLAND  0200   28     300/ 12/ 16 1022.4R
NORTHPORT PIER   0200   30     330/ 18/ 21 1022.0R
SISTER BAY       0213          350/ 21/ 23   N/A
ALGOMA LAKESHORE 0214          340/ 10/ 12   N/A
KEWAUNEE LAKESHO 0200   27     310/  8/ 11 1021.7R
SHEBOYGAN LAKESH 0200   23 34  290/ 12/ 15 1024.3R
PORT WASHINGTON  0240   23     300/  7/ 13 1024.7R
MILWAUKEE LAKESH 0200   23     280/  9/ 12   N/A
KENOSHA   LAKESH 0200   23     290/  8/ 11 1024.7R
$$

TC  - TEMPERATURE IN CELSIUS
VSB - VISIBILITY IN STATUTE MILES
WCI - WIND CHILL INDEX
HX  - HEAT INDEX




USA.gov is the U.S. government's official web portal to all federal, state and local government web resources and services.